Regional Weather Roundup
Issued by NWS

Home | Current Version | Previous Version | Text Only | Print | Product List | Glossary Off
Versions: 1 2 3 4 5 6 7 8 9 10 11 12 13 14 15 16 17 18 19 20 21 22 23 24 25 26 27 28 29 30 31 32 33 34 35 36 37 38 39 40 41 42 43 44 45 46 47 48 49 50

000
ASUS45 KABQ 020810
RWRNM
NEW MEXICO REGIONAL WEATHER ROUNDUP
NATIONAL WEATHER SERVICE ALBUQUERQUE NM
200 AM MDT MON MAY 02 2016

NOTE: "FAIR" MEANS FEW OR NO CLOUDS BELOW 12,000 FEET AGL WITH NO
       SIGNIFICANT WEATHER OR OBSTRUCTIONS TO VISION.

      THIS PRODUCT IS RELEASED AS TWO VERSIONS.  ONE VERSION NEAR
      THE TOP OF THE HOUR CONTAINING PRELIMINARY DATA FROM ALBUQUERQUE
      AND OTHER STATIONS.  A FINAL VERSION WITH ADDITIONAL DATA IS
      ISSUED ABOUT 10 MINUTES AFTER THE HOUR.

NMZ501-503-504-510>518-020900-
NORTHWEST PLATEAU/NORTHCENTRAL MOUNTAINS

CITY           SKY/WX    TMP DP  RH WIND       PRES   REMARKS
FARMINGTON     FAIR      41  33  73 SE16      30.20S
LOS ALAMOS     CLOUDY    33  33 100 S8        30.27S WCI  26
SANTA FE       CLOUDY    35  31  85 S9        30.26S WCI  28
TAOS           CLOUDY    34  27  75 NW6       30.26F WCI  29
ANGEL FIRE     CLOUDY    28  25  87 NE7       30.26F WCI  21

$$
NMZ402-403-502-505>509-020900-
WESTCENTRAL MOUNTAINS/SOUTHWEST MOUNTAINS

CITY           SKY/WX    TMP DP  RH WIND       PRES   REMARKS
GALLUP         MOCLDY    33  31  92 E3        30.20F
GRANTS         CLOUDY    35  34  96 S10       30.24S WCI  27
SILVER CITY      N/A     41  32  70 S9        30.17S

$$
NMZ407-409-411-412-020900-
SOUTHERN DESERTS

CITY           SKY/WX    TMP DP  RH WIND       PRES   REMARKS
LORDSBURG      FAIR      48  32  53 SE18      30.14R
DEMING         FAIR      45  34  65 E15G22    30.18R
LAS CRUCES     FAIR      43  32  64 W5        30.20S
HOLLOMAN AFB   FAIR      46  31  57 SE13      30.17S
ALAMOGORDO     FAIR      45  32  61 S12       30.19S
T OR C         LGT RAIN  43  33  68 N16G24    30.20R

$$
NMZ519>523-020900-
CENTRAL VALLEYS/CENTRAL HIGHLANDS

CITY           SKY/WX    TMP DP  RH WIND       PRES   REMARKS
ALBUQUERQUE    FAIR      39  31  72 E13       30.25S WCI  31
DOUBLE EAGLE   MOCLDY    36  32  85 SE13      30.25F WCI  27
MORIARTY ARPT  CLOUDY    35  30  83 S6        30.29F WCI  30
CLINES CORNERS LGT SNOW  30  28  92 E13       30.24F FOG     WCI  20
BELEN          CLOUDY    40  37  89 W3        30.25F
SOCORRO        FAIR      39  33  80 NW10G17   30.26S WCI  32

$$
NMZ524>526-539-540-020900-
SOUTHCENTRAL MOUNTAINS

CITY           SKY/WX    TMP DP  RH WIND       PRES   REMARKS
RUIDOSO        LGT SNOW  32  32 100 E5        30.29S WCI  27

$$
NMZ527>531-020900-
NORTHEAST HIGHLANDS/NORTHEAST PLAINS

CITY           SKY/WX    TMP DP  RH WIND       PRES   REMARKS
LAS VEGAS      CLOUDY    30  29  96 CALM      30.27F
RATON          CLOUDY    30  25  81 N7        30.26F WCI  23
CLAYTON        FAIR      34  31  88 NW12      30.26F WCI  25

$$
NMZ532>537-020900-
EASTCENTRAL PLAINS

CITY           SKY/WX    TMP DP  RH WIND       PRES   REMARKS
TUCUMCARI      FAIR      35  32  88 NE5       30.28S WCI  31
CANNON AFB     CLOUDY    41  39  93 N9        30.26F
CLOVIS AIRPORT CLOUDY    39  36  87 N7        30.28S WCI  34

$$
NMZ028-029-538-020900-
SOUTHEAST PLAINS

CITY           SKY/WX    TMP DP  RH WIND       PRES   REMARKS
ROSWELL        CLOUDY    44  35  70 N9        30.28F
ARTESIA        CLOUDY    46  37  71 N10       30.28F
CARLSBAD       FAIR      45  35  68 N13       30.26F
HOBBS          FAIR      41  36  81 N13       30.25F


$$




USA.gov is the U.S. government's official web portal to all federal, state and local government web resources and services.